Tracking 35030 objects as of 9-Aug-2026
HD Live streaming from Space Station
objects crossing your sky now

STARLINK-1171

Track STARLINK-1171 now!
10-day predictions
STARLINK-1171 is classified as:


NORAD ID: 45062
Int'l Code: 2020-006U
Launch date: January 29, 2020
Source: United States (US)
Launch site: AIR FORCE EASTERN TEST RANGE (AFETR)
Your satellite tracking list
Your tracking list is empty




NASA's NSSDC Master Catalog

Two Line Element Set (TLE):
1 45062U 20006U   26221.17754926  .00107823  00000-0  44526-3 0  9994
2 45062  53.0323 211.7830 0005577  50.8952 309.2566 15.85076404360998
Source of the keplerian elements: AFSPC